Location: Castelbiague
(43.0361°N, 0.9246°E)
Time: 09:55:20
(UTC+00:00)

Cosmos 2056 Rocket - Pass Details

Date: 17 June 2021
Orbit: 741 x 801 km, 74.0° (Epoch: 27 July)

Event Time Altitude Azimuth Distance (km) Brightness Sun altitude
Rises 20:22:20 0° 212° (SSW) 3,192 6.6 -7.2°
Reaches altitude 10° 20:24:43 10° 217° (SW) 2,280 5.9 -7.5°
Maximum altitude 20:29:47 53° 294° (WNW) 939 4.4 -8.2°
Drops below altitude 10° 20:34:57 10° 12° (NNE) 2,334 6.5 -8.9°
Sets 20:37:26 0° 17° (NNE) 3,276 7.2 -9.2°
